Location: Gaast
(52.9002°N, 5.8891°E)
Time: 23:52:53
(UTC+00:00)

Cosmos 676 Rocket - Pass Details

Date: 18 November 2025
Orbit: 750 x 779 km, 74.0° (Epoch: 04 December)

Event Time Altitude Azimuth Distance (km) Brightness Sun altitude
Rises 17:58:18 0° 190° (S) 3,250 7.4 -20.8°
Reaches altitude 10° 18:00:43 10° 186° (S) 2,325 6.6 -21.2°
Maximum altitude 18:05:53 57° 109° (ESE) 914 4.0 -22.0°
Enters shadow 18:06:41 51° 74° (ENE) 973 4.1 -22.1°
